Regional Weather Roundup
Issued by NWS

Home | Current Version | Previous Version | Text Only | Print | Product List | Glossary On
Versions: 1 2 3 4 5 6 7 8 9 10 11 12 13 14 15 16 17 18 19 20 21 22 23 24 25 26 27 28
000
ASUS46 KPQR 211310
RWROR

OREGON REGIONAL WEATHER ROUNDUP
NATIONAL WEATHER SERVICE PORTLAND OR
600 AM PDT SAT OCT 21 2017

NOTE: "FAIR" INDICATES FEW OR NO CLOUDS BELOW 12,000 FEET WITH
NO SIGNIFICANT WEATHER AND/OR OBSTRUCTIONS TO VISIBILITY.

ORZ001>013-211400-
NORTHWEST OREGON


CITY           SKY/WX    TMP DP  RH WIND       PRES   REMARKS
ASTORIA        LGT RAIN  47  44  90 E7        29.73F
NEWPORT        LGT RAIN  50  48  93 S25G39    29.84S
PORTLAND       LGT RAIN  48  46  93 SE16      29.88F
VANCOUVER WA   LGT RAIN  48  47  96 E15G22    29.88F
SCAPPOOSE      LGT RAIN  46  45  96 S10       29.86F FOG
HILLSBORO      NOT AVBL
AURORA         CLOUDY    47  46  97 CALM      29.88F
MCMINNVILLE    LGT RAIN  47  47 100 SE10      29.87F
SALEM          LGT RAIN  47  43  86 S12       29.86F
CORVALLIS      LGT RAIN  46  45  93 S23       29.88F
EUGENE         LGT RAIN  46  44  93 S14       29.91F
$$

ORZ021-028-211400-
SOUTHWEST OREGON


CITY           SKY/WX    TMP DP  RH WIND       PRES   REMARKS
NORTH BEND     LGT RAIN  52  48  86 SE12      29.91R
BROOKINGS      RAIN      48  46  93 SE14G22   30.09F FOG
ROSEBURG       LGT RAIN  49  42  77 S6        29.97S
SEXTON SUMMIT  FOG       35  34  96 S23G36    29.98R VSB 1/4 WCI  23
GRANTS PASS    CLOUDY    46  41  81 CALM      30.10S
MEDFORD        LGT RAIN  43  42  97 N6        30.08S
$$

ORZ014>016-041-211400-
COLUMBIA GORGE


CITY           SKY/WX    TMP DP  RH WIND       PRES   REMARKS
TROUTDALE      LGT RAIN  49  45  86 E13       29.89F
HOOD RIVER     RAIN      43  41  93 CALM      29.95F
THE DALLES     LGT RAIN  44  41  89 E5        29.96S
$$

ORZ029>031-041-044-049-050-061>064-502-503-505>511-211400-
EASTERN OREGON


CITY           SKY/WX    TMP DP  RH WIND       PRES   REMARKS
MADRAS         LGT RAIN N/A N/A N/A SE21      29.96F
REDMOND        LGT RAIN  39  32  76 SE9G20    29.95F WCI  33
BEND           LGT RAIN  39  34  81 SE6       29.96F WCI  35
PRINEVILLE     CLOUDY    36  34  93 SE10G18   29.97F WCI  28
KLAMATH FALLS  LGT SNOW  33  32  96 S8        30.08F FOG     WCI  26
LAKEVIEW       LGT RAIN  34  32  92 S10       30.11S WCI  26
HERMISTON      CLOUDY    42  37  82 CALM      29.97F
PENDLETON      CLOUDY    46  29  51 CALM      29.96F
JOHN DAY       CLOUDY    39  30  68 S10G17    30.03F WCI  33
MEACHAM        CLOUDY    33  29  85 CALM      29.98S
LA GRANDE      CLOUDY    39  27  62 S9        30.02F WCI  33
BAKER CITY     MOCLDY    38  27  64 SE14      30.03F WCI  30
BURNS          CLOUDY    28  28 100 CALM      30.08S
ROME             N/A     33  25  72 SE10      30.10R WCI  25
ONTARIO        CLOUDY    31  28  89 CALM      30.14R
$$




USA.gov is the U.S. government's official web portal to all federal, state and local government web resources and services.